Regional Weather Roundup
Issued by NWS Sioux Falls, SD

Home | Current Version | Previous Version | Graphics & Text | Print | Product List | Glossary Off
Versions: 1 2 3 4 5 6 7 8 9 10 11 12 13 14 15 16 17 18 19 20 21 22 23 24 25 26 27 28 29 30 31 32 33 34 35 36 37 38 39 40 41 42 43 44 45 46 47 48 49 50

000
ASUS43 KFSD 270402
RWRFSD

WEATHER ROUNDUP FOR SE SOUTH DAKOTA/SW MINNESOTA/NW IOWA
NATIONAL WEATHER SERVICE SIOUX FALLS SD
1000 PM CST THU FEB 26 2015

NOTE: "FAIR" INDICATES FEW OR NO CLOUDS BELOW 12,000 FEET WITH NO
SIGNIFICANT WEATHER AND OR OBSTRUCTIONS TO VISIBILITY.


SDZ038>040-050-052>070-270500-
SOUTHEAST SOUTH DAKOTA

CITY           SKY/WX    TMP DP  RH WIND       PRES   REMARKS
CHAMBERLAIN    NOT AVBL
HURON          PTCLDY   -13 -17  82 W8        30.56S WCI -30
MADISON        FAIR      -9 N/A N/A NW10      30.49R WCI -28
MITCHELL       CLEAR     -2  -7  79 NW7       30.57S WCI -15
SIOUX FALLS    CLEAR     -5 -10  79 NW8       30.52S WCI -20
WINNER         FAIR       4  -8  57 CALM      30.50S
YANKTON        CLEAR      0  -6  78 NW5       30.58R WCI -10
$$

MNZ071-072-080-081-089-090-097-098-270500-
SOUTHWEST MINNESOTA

CITY           SKY/WX    TMP DP  RH WIND       PRES   REMARKS
FAIRMONT       CLEAR     -4 -11  71 NW9       30.49R WCI -20
JACKSON        CLEAR     -6 -11  77 NW9       30.48S WCI -22
LUVERNE        CLEAR     -4 -11  71 NW7       30.52S WCI -18
MARSHALL       CLEAR     -8 -15  71 W9        30.53S WCI -25
MONTEVIDEO     CLEAR     -2  -9  71 N7        30.54S WCI -16
PIPESTONE      CLEAR     -6  -9  84 N8        30.47S WCI -21
REDWOOD FALLS  CLEAR     -4 -10  75 W9        30.53R WCI -20
TRACY          CLEAR     -4  -9  78 NW8       30.51S WCI -19
WINDOM         CLEAR     -9 -13  84 NW8       30.49S WCI -26
WORTHINGTON    CLEAR     21 -20  15 NW9       30.50S WCI  11
$$

IAZ001>003-012>014-020>022-031-032-NEZ013-014-SDZ071-270500-
NORTHWEST IOWA

CITY           SKY/WX    TMP DP  RH WIND       PRES   REMARKS
DENISON        CLEAR     -6 -11  77 CALM      30.54R
ESTHERVILLE    CLEAR     -9 -14  78 NW8       30.50R WCI -25
SIOUX CITY     CLEAR      3  -5  69 N10       30.58R WCI -12
SPENCER        CLEAR    -11 -17  75 W3        30.52R
$$

ABBREVIATIONS USED IN REMARKS
   TC - TEMPERATURE IN CELSIUS
  WCI - WIND CHILL INDEX
   HX - HEAT INDEX
  VSB - VISIBILITY



USA.gov is the U.S. government's official web portal to all federal, state and local government web resources and services.